Regional Weather Roundup
Issued by NWS

Home | Current Version | Previous Version | Graphics & Text | Print | Product List | Glossary On
Versions: 1 2 3 4 5 6 7 8 9 10 11 12 13 14 15 16 17 18 19 20 21 22 23 24 25 26 27 28 29 30 31 32 33 34 35 36 37 38 39 40 41 42 43 44 45 46 47 48 49 50
000
ASUS43 KFSD 272110
RWRSD

WEATHER ROUNDUP FOR SOUTH DAKOTA
NATIONAL WEATHER SERVICE SIOUX FALLS SD
400 PM CDT WED APR 27 2016

NOTE: "FAIR" INDICATES FEW OR NO CLOUDS BELOW 12,000 FEET WITH NO
SIGNIFICANT WEATHER AND/OR OBSTRUCTIONS TO VISIBILITY.


SDZ001>005-009-010-012>017-272200-
NORTHWEST AND NORTH CENTRAL SOUTH DAKOTA

CITY           SKY/WX    TMP DP  RH WIND       PRES   REMARKS
BUFFALO          N/A     35  33  92 N13       29.82F WCI  26
FAITH            N/A     33  30  88 N17       29.81R WCI  22
MOBRIDGE       CLOUDY    45  35  68 NE15G24   29.80R
$$

SDZ012>016-024>037-041>051-057-063-072>074-272200-
SOUTHWEST AND SOUTH CENTRAL SOUTH DAKOTA

CITY           SKY/WX    TMP DP  RH WIND       PRES   REMARKS
RAPID CTY ARPT FLURRIES  37  34  89 N29G39    29.80S
PIERRE         LGT RAIN  37  35  92 NE22G30   29.75R
CUSTER         CLOUDY    35  27  72 N10G17    29.75S WCI  27
ELLSWORTH AFB  LGT SNOW  36  36 100 N25G33    29.81R
PHILIP         LGT SNOW  33  32  96 N14       29.79R VSB 3/4 WCI  23
PINE RIDGE     LGT RAIN  38  34  85 NW20G32   29.77S
WINNER         LGT RAIN  40  36  86 NE14      29.68S FOG
$$

SDZ004>011-016>023-039-040-272200-
NORTHEAST SOUTH DAKOTA

CITY           SKY/WX    TMP DP  RH WIND       PRES   REMARKS
ABERDEEN       LGT RAIN  42  34  73 NE14      29.82R
WATERTOWN      LGT RAIN  39  35  86 E25G37    29.74S
BROOKINGS      LGT RAIN  40  36  86 E30G46    29.67F
SISSETON         N/A     48  29  47 SE15      29.84R
$$

SDZ017-020-022-023-036>040-048>070-272200-
SOUTHEAST SOUTH DAKOTA

CITY           SKY/WX    TMP DP  RH WIND       PRES   REMARKS
SIOUX FALLS    CLOUDY    43  38  82 E24G33    29.67S
HURON          LGT RAIN  41  37  86 E21G37    29.71R
CHAMBERLAIN    DRIZZLE   41  40  98 NE12G20   29.69S
MITCHELL       LGT RAIN  42  39  89 E16       29.68R
YANKTON        CLOUDY    46  43  87 E20G26    29.57S
$$

ABBREVIATIONS USED IN REMARKS
   TC - TEMPERATURE IN CELSIUS
  WCI - WIND CHILL INDEX
   HX - HEAT INDEX
  VSB - VISIBILITY





USA.gov is the U.S. government's official web portal to all federal, state and local government web resources and services.